Regional Weather Roundup
Issued by NWS

Home | Current Version | Previous Version | Graphics & Text | Print | Product List | Glossary On
Versions: 1 2 3 4 5 6 7 8 9 10 11 12 13 14 15 16 17 18 19 20 21 22 23 24 25 26 27 28 29 30 31 32 33 34 35 36 37 38 39 40 41 42 43 44 45 46 47 48 49 50
000
ASUS43 KOAX 121310
RWRNE

WEATHER ROUNDUP FOR NEBRASKA
NATIONAL WEATHER SERVICE OMAHA NE
700 AM CST TUE DEC 12 2017

NOTES: SATELLITE DATA IS BEING USED TO AUGMENT CLOUD COVER ABOVE
       12000 FEET.
       "FAIR" INDICATES FEW OR NO CLOUDS BELOW 12,000 FEET WITH NO
       SIGNIFICANT WEATHER AND/OR OBSTRUCTIONS TO VISIBILITY.


NEZ001>004-019>022-054>056-121400-
NEBRASKA PANHANDLE

CITY           SKY/WX    TMP DP  RH WIND       PRES   REMARKS
SCOTTSBLUFF    CLOUDY    21  14  74 NW8       30.30F WCI  11
ALLIANCE       CLOUDY    19  13  77 W5        30.27F WCI  12
CHADRON        CLOUDY    25  17  72 S3        30.27F
GORDON         FAIR      25  19  76 W6        30.23F WCI  18
KIMBALL        CLOUDY    26  15  64 W8        30.32S WCI  17
SIDNEY         CLOUDY    28  15  58 W14       30.30F WCI  17
$$

NEZ057>060-069>072-079>082-121400-
SOUTHWEST NEBRASKA

CITY           SKY/WX    TMP DP  RH WIND       PRES   REMARKS
NORTH PLATTE   CLOUDY    14  12  92 NW5       30.31F WCI   6
IMPERIAL       CLOUDY    18  11  74 W6        30.32F WCI  10
LEXINGTON      CLOUDY    21  17  86 W5        30.32F WCI  14
MCCOOK         CLOUDY    21  16  81 W8        30.34F WCI  11
OGALLALA       CLOUDY    17  12  81 W7        30.31F WCI   7
$$

NEZ005>010-023>029-035>040-094-121400-
NORTH CENTRAL NEBRASKA

CITY           SKY/WX    TMP DP  RH WIND       PRES   REMARKS
VALENTINE      CLOUDY    22  19  89 SW9       30.26F WCI  12
AINSWORTH      CLOUDY    23  22  94 W6        30.25F WCI  16
BROKEN BOW     CLOUDY    26  21  81 W7        30.28F WCI  18
O`NEILL        CLOUDY    32  31  97 W5        30.27S WCI  27
ORD            CLOUDY    25  22  88 NW7       30.28F WCI  17
THEDFORD       CLOUDY    21  19  91 SW6       30.27F WCI  14
$$

NEZ041-046>049-061>064-073>077-083>087-121400-
SOUTH CENTRAL NEBRASKA

CITY           SKY/WX    TMP DP  RH WIND       PRES   REMARKS
GRAND ISLAND   CLOUDY    28  26  92 SW7       30.31F WCI  21
AURORA         CLOUDY    29  26  89 SW3       30.31F
HASTINGS       CLOUDY    28  25  88 SW7       30.32F WCI  21
HEBRON         CLOUDY    26  23  89 CALM      30.35F
HOLDREGE       CLEAR     22  20  93 W5        30.32F WCI  16
KEARNEY        CLEAR     25  21  85 W7        30.32F WCI  17
YORK           CLOUDY    21  21 100 W5        30.32F WCI  15
$$

NEZ011>018-030>034-042>045-121400-
NORTHEAST NEBRASKA

CITY           SKY/WX    TMP DP  RH WIND       PRES   REMARKS
NORFOLK        CLOUDY    16  14  92 CALM      30.29F
ALBION         CLOUDY    24  22  91 CALM      30.29F
BLAIR          CLOUDY    16  13  89 W5        30.31S WCI   9
COLUMBUS       CLOUDY    13  11  92 W3        30.32F
FREMONT        CLOUDY    14  11  89 CALM      30.33S
TEKAMAH        CLOUDY    12   9  87 NW7       30.34S WCI   1
WAYNE          CLOUDY    11   9  90 CALM      30.30F
$$

NEZ050>053-065>068-078-088>093-121400-
SOUTHEAST NEBRASKA

CITY           SKY/WX    TMP DP  RH WIND       PRES   REMARKS
LINCOLN        CLOUDY    20  15  81 W5        30.35F WCI  13
OMAHA EPPLEY   CLOUDY    16  10  77 N3        30.35S
BEATRICE       CLOUDY    19  16  89 CALM      30.35R
FALLS CITY     CLOUDY    16  12  84 W8        30.35S WCI   5
NEBRASKA CITY  CLOUDY    16  14  91 NW5       30.33F WCI   9
PLATTSMOUTH    CLOUDY    15  13  90 NW7       30.32F WCI   6
$$

NEZ044-045-051>053-067-121400-
OMAHA AREA

CITY           SKY/WX    TMP DP  RH WIND       PRES   REMARKS
OMAHA EPPLEY   CLOUDY    16  10  77 N3        30.35S
BLAIR          CLOUDY    16  13  89 W5        30.31S WCI   9
FREMONT        CLOUDY    14  11  89 CALM      30.33S
MILLARD        CLOUDY    20  15  79 NW3       30.34F
OFFUTT AFB     CLOUDY    15  10  81 CALM      30.34S
PLATTSMOUTH    CLOUDY    15  13  90 NW7       30.32F WCI   6
WAHOO          FAIR      15  12  86 CALM      30.34S
$$




USA.gov is the U.S. government's official web portal to all federal, state and local government web resources and services.